Regional Weather Roundup
Issued by NWS

Home | Current Version | Previous Version | Graphics & Text | Print | Product List | Glossary On
Versions: 1 2 3 4 5 6 7 8 9 10 11 12 13 14 15 16 17 18 19 20 21 22 23 24 25 26 27 28 29 30 31 32 33 34 35 36 37 38 39 40 41 42 43 44 45 46 47 48 49 50
679
ASUS43 KBIS 230510
RWRND

NORTH DAKOTA REGIONAL WEATHER ROUNDUP
NATIONAL WEATHER SERVICE BISMARCK ND
1200 AM CDT SAT JUL 23 2016

NOTE: "FAIR" INDICATES FEW OR NO CLOUDS BELOW 12,000 FEET WITH NO
SIGNIFICANT WEATHER AND/OR OBSTRUCTIONS TO VISIBILITY.


NDZ001>003-009>011-017-230600-
NORTHWEST NORTH DAKOTA

CITY           SKY/WX    TMP DP  RH WIND       PRES   REMARKS
WILLISTON      LGT RAIN  73  64  73 S20G32    29.88R
MINOT          CLOUDY    76  65  68 E10       29.87F
MINOT AFB      CLOUDY    73  66  76 SE16      29.85F
$$

NDZ018>021-031>035-040>046-230600-
SOUTHWEST NORTH DAKOTA

CITY           SKY/WX    TMP DP  RH WIND       PRES   REMARKS
BISMARCK       TSTM      72  61  68 SE17G25   29.92F
DICKINSON      LGT RAIN  64  61  90 SE29G39   29.87F
GARRISON         N/A     69  63  81 S7        29.87R
HETTINGER ARPT CLOUDY    68  61  78 E18G33    29.95F
$$

NDZ004>008-012>016-024-026-027-054-230600-
NORTHEAST NORTH DAKOTA

CITY           SKY/WX    TMP DP  RH WIND       PRES   REMARKS
GRAND FORKS    CLOUDY    75  66  73 CALM      29.99R
GRND FRKS AFB  CLOUDY    70  67  92 CALM      30.00F
DEVILS LAKE    CLOUDY    74  64  71 S12       29.99F
$$

NDZ022-023-025-028>030-036>039-047>053-230600-
SOUTHEAST NORTH DAKOTA

CITY           SKY/WX    TMP DP  RH WIND       PRES   REMARKS
FARGO          CLOUDY    73  67  81 NE7       29.97F
JAMESTOWN      LGT RAIN  70  61  73 SW25G39   30.00F
$$





USA.gov is the U.S. government's official web portal to all federal, state and local government web resources and services.